Dewpoint
23 18 18 17 17 18 19 21 21 22 36 30 50 49 52 53 54 58 60 63 63 60 59 59 57 59 56 58 60 60 58 54 54 53 54 54 54 54 54 54 54 54 54 55 55 56 58 61 63 64 65 66 67 68 68 69 68 69 69 69 69 69 69 70 70 71 70 69 70 69 69 68 69 69 69 70 71 72 72 73 73 73 74 74 75 75
20 19 17 16 16 17 17 19 21 22 23 21 22 33 42 52 52 55 59 62 63 59 58 60 59 59 59 60 62 64 60 54 54 53 53 53 54 54 53 54 54 54 54 55 55 56 60 61 62 63 64 66 65 66 67 68 68 69 69 69 69 69 69 69 70 71 70 69 69 68 68 68 68 69 69 69 70 71 72 73 73 74 73 74 75 76
19 14 15 16 16 19 19 15 17 21 27 24 21 35 45 52 57 60 61 62 62 59 57 57 58 58 59 60 60 62 63 63 62 56 53 53 53 54 53 53 54 54 54 54 53 56 59 61 62 62 63 64 65 65 66 67 68 68 68 68 69 68 69 70 71 71 70 69 70 68 68 67 66 68 69 69 71 72 72 72 73 74 73 73 74 75
10 9 12 15 17 16 16 16 16 20 27 20 17 48 48 54 52 50 59 61 61 57 55 57 56 56 58 60 60 61 62 64 66 66 63 54 53 53 53 54 53 53 53 53 52 56 59 60 61 62 62 63 64 65 64 65 67 68 69 68 68 69 69 70 71 72 70 70 70 68 68 67 66 66 70 70 71 72 71 72 73 73 73 73 73 75
6 7 13 14 14 15 13 15 13 10 26 20 21 43 48 55 53 50 58 60 59 58 57 57 56 54 56 56 58 61 63 64 64 65 65 65 60 58 57 54 54 53 53 53 50 57 59 60 60 61 62 63 63 63 64 65 66 67 68 68 68 69 69 70 72 72 70 72 71 71 69 68 68 69 69 70 70 71 71 71 72 72 73 74 74 75
7 8 10 12 14 13 13 11 10 9 7 12 13 26 35 52 52 58 59 58 56 55 56 55 50 51 55 57 57 59 61 61 63 62 62 62 63 64 59 56 54 54 53 53 50 56 59 59 60 61 62 63 63 63 64 65 66 67 67 68 69 69 70 70 71 71 72 72 70 70 68 67 66 66 67 68 69 70 70 71 72 72 73 73 73 74
12 12 8 8 9 12 12 11 11 9 9 13 13 19 31 50 56 59 58 56 53 51 55 55 49 48 55 55 57 58 59 59 62 62 62 62 62 62 60 57 54 53 52 53 51 56 58 59 60 61 62 63 63 63 64 65 66 67 68 68 69 69 70 70 71 71 73 71 70 69 67 66 65 65 67 68 69 70 70 71 72 72 73 73 73 73
19 20 10 6 7 8 10 10 10 10 12 11 12 25 26 53 58 58 57 54 53 56 57 56 50 47 49 53 56 58 58 58 59 61 62 62 63 62 61 60 54 52 52 52 51 55 58 59 60 61 62 63 63 64 64 64 66 67 68 69 69 69 70 70 71 72 72 70 70 70 68 68 66 65 66 68 69 70 71 70 72 72 72 73 73 72
22 22 15 8 9 7 7 9 11 12 11 13 20 37 45 54 56 57 55 51 53 53 50 55 52 47 47 52 56 58 57 57 57 57 60 61 62 63 62 62 57 53 52 52 51 55 58 59 60 61 62 63 64 64 64 64 66 67 68 69 69 69 70 70 71 72 72 71 70 70 69 69 69 67 67 69 71 70 72 70 72 72 72 72 73 73
24 20 16 7 5 5 7 8 9 8 7 9 24 54 55 56 57 57 53 53 51 46 47 53 53 46 45 55 56 57 56 56 55 56 57 60 61 62 63 63 62 55 53 52 51 55 58 59 60 61 62 63 64 65 65 65 67 67 68 69 69 69 69 70 72 72 72 71 72 70 70 69 70 70 69 69 69 70 71 69 71 72 71 71 72 72
22 34 34 17 12 11 10 8 7 7 7 27 51 53 53 55 55 54 48 48 45 40 42 52 53 49 42 51 54 55 56 56 55 55 56 58 60 62 63 62 64 59 53 51 51 54 57 59 60 62 63 63 64 65 65 66 67 68 68 68 68 69 69 70 72 72 71 71 71 70 70 69 70 71 70 69 69 69 70 69 70 71 71 71 71 72
23 22 23 23 35 27 17 19 24 18 17 47 47 44 50 49 50 48 49 46 42 39 42 51 53 51 42 44 55 56 56 56 55 54 55 56 58 60 62 62 63 62 54 52 52 53 57 59 61 62 63 64 64 65 65 66 68 68 68 68 68 69 69 71 72 72 71 71 71 70 70 70 70 71 70 69 69 70 70 69 70 71 71 71 71 71
19 20 22 19 43 18 21 14 17 20 22 36 32 41 42 42 43 43 45 42 40 39 37 48 53 49 49 47 52 56 56 57 57 55 55 55 57 59 62 62 63 64 57 52 53 53 55 59 60 61 63 64 65 66 66 66 67 68 68 68 68 69 69 71 72 72 72 72 71 71 71 70 71 71 71 70 69 70 70 69 70 70 70 70 71 71
19 22 23 21 22 27 22 15 17 18 18 28 30 37 30 32 32 32 36 35 34 33 29 51 52 47 48 46 51 51 55 57 58 57 55 55 56 58 61 61 63 64 59 54 54 53 55 58 60 62 63 64 65 66 66 67 68 68 68 68 68 69 70 71 72 72 72 72 72 72 71 71 72 71 71 70 70 71 71 70 70 70 70 70 71 71
19 19 22 21 20 23 23 20 17 19 19 19 33 30 37 33 27 28 31 32 29 27 34 51 46 42 43 44 54 57 56 55 58 58 57 55 56 58 61 61 62 64 61 57 55 54 54 57 60 61 62 64 64 65 66 67 68 69 68 68 69 69 70 71 72 72 72 72 72 72 72 72 72 72 71 70 70 71 71 71 70 70 70 70 71 72
20 20 21 24 24 24 23 24 22 19 18 20 24 32 30 29 38 27 31 28 28 35 44 45 42 43 44 52 57 58 58 56 58 59 59 57 57 59 60 60 61 63 64 61 57 55 54 56 59 61 62 63 64 65 66 67 68 68 69 69 69 69 70 71 72 72 72 72 72 72 71 71 73 73 72 72 72 71 72 72 71 71 71 71 72 73
23 19 22 25 24 21 23 26 23 21 20 22 21 26 35 35 28 31 38 39 27 25 35 42 46 49 51 52 55 58 59 58 58 59 59 59 59 60 60 60 60 62 64 64 59 57 55 55 58 60 61 62 63 64 66 67 68 69 69 69 69 70 70 71 72 72 72 72 72 72 72 71 72 73 72 71 72 71 72 73 72 72 72 72 72 73
19 17 18 24 23 22 24 24 24 25 22 20 17 18 27 33 31 28 24 28 22 19 19 44 44 45 45 44 56 57 58 58 58 59 59 60 60 60 60 60 59 60 63 65 64 60 58 56 57 59 61 62 63 64 66 67 68 69 69 69 69 70 70 70 71 71 71 72 72 72 72 71 71 72 72 71 72 72 72 73 73 73 73 73 72 73
21 19 20 26 25 24 25 26 25 28 27 30 20 21 15 27 32 33 27 20 20 20 22 40 44 45 46 48 55 56 58 58 58 58 59 60 61 60 60 60 59 59 62 65 66 64 60 58 58 58 60 61 62 65 66 67 68 69 69 70 69 70 70 70 71 71 71 72 71 71 72 71 71 71 71 72 72 72 72 72 73 73 73 73 73 73
27 19 20 26 26 27 23 26 26 27 29 28 26 24 23 22 25 31 25 33 25 21 29 30 41 39 49 53 57 57 58 59 60 59 58 60 61 61 61 60 59 59 61 63 66 67 63 60 58 58 59 61 62 64 66 68 69 69 70 70 70 70 71 71 71 71 71 71 71 71 71 71 72 72 71 71 72 72 72 72 72 73 73 73 73 73
24 26 20 20 28 24 24 24 26 28 32 27 25 26 26 28 23 20 26 22 22 23 27 32 35 40 50 58 58 58 60 61 61 60 60 60 61 61 61 61 60 60 60 62 64 66 67 63 61 60 60 61 62 64 67 68 69 69 70 70 71 71 71 71 71 71 71 72 71 72 71 71 71 71 71 71 72 72 72 72 73 72 72 73 73 73
24 25 21 26 28 28 24 24 29 30 30 28 25 28 26 25 21 15 18 22 26 23 26 31 32 43 54 59 59 60 61 61 62 62 62 62 61 62 62 61 61 61 61 61 63 66 67 68 64 63 63 63 62 64 66 68 69 69 70 70 71 71 72 71 71 72 72 72 71 71 71 71 71 71 71 71 71 72 71 72 72 73 73 72 72 73
23 30 25 28 27 30 27 30 33 33 33 30 28 29 31 28 22 18 16 20 19 25 39 36 40 47 55 58 58 59 61 61 61 61 61 62 63 64 63 63 64 64 63 63 63 65 67 67 66 64 64 63 63 65 66 68 69 69 70 71 71 72 72 72 72 72 72 72 71 71 71 71 71 71 71 70 70 71 71 71 72 72 72 72 72 72
45 26 24 27 36 41 38 35 33 33 32 32 32 32 38 40 37 24 20 24 27 40 32 40 42 47 55 57 59 60 61 61 61 61 61 62 63 63 64 65 64 64 66 67 67 66 67 67 66 65 65 64 64 66 67 67 68 69 70 71 71 71 72 72 72 72 72 72 71 71 71 70 70 70 71 70 70 70 70 70 71 72 71 71 71 71
19 25 23 26 33 37 33 34 31 31 35 35 34 34 38 43 43 34 32 37 35 42 43 36 40 47 54 57 59 60 60 60 61 61 62 61 62 63 63 64 65 65 66 65 66 66 66 66 66 66 66 66 65 66 67 68 68 69 70 70 71 71 72 72 72 72 72 72 71 71 70 70 70 70 70 70 70 70 70 70 70 71 71 71 71 71
20 28 27 19 26 28 29 31 29 29 38 40 36 37 42 44 45 38 35 38 34 44 46 45 46 50 54 56 57 58 59 60 61 62 62 62 62 62 63 64 64 64 64 64 65 65 65 66 66 67 68 68 69 68 68 68 70 70 70 71 71 71 72 72 72 72 72 71 71 71 70 70 70 69 69 69 69 70 70 70 70 70 71 71 70 71
28 33 31 32 29 30 36 39 37 41 38 37 38 39 43 46 47 43 40 40 41 45 47 48 49 51 53 55 56 57 58 59 60 61 61 61 61 62 63 64 64 63 64 64 65 65 65 66 66 67 68 68 69 69 69 69 69 69 69 69 70 69 69 70 71 72 72 71 71 70 70 70 70 70 69 69 69 69 69 69 69 70 70 71 70 70
33 24 28 37 35 33 35 39 39 40 41 33 40 42 44 46 49 48 44 41 41 41 43 50 51 50 52 55 56 57 58 58 59 60 61 61 61 62 63 63 64 64 64 64 64 64 64 65 66 67 68 68 69 69 69 69 69 69 69 69 70 70 70 71 70 70 70 71 71 70 71 71 70 70 70 70 70 69 69 69 69 69 70 71 70 70
27 25 24 27 26 28 30 34 37 37 39 40 42 43 44 46 48 49 49 49 45 43 45 51 52 51 53 55 57 57 58 58 59 60 62 62 62 62 62 62 62 63 63 64 64 64 64 65 66 66 67 68 69 69 69 69 69 69 69 70 70 70 70 71 70 70 69 69 70 70 71 71 71 71 71 71 70 70 69 68 68 69 69 70 70 70
28 27 30 27 29 27 27 31 38 41 43 43 45 44 45 45 45 46 48 50 51 50 51 51 52 52 54 56 57 57 58 59 60 61 62 62 61 62 62 62 62 63 63 63 64 64 64 65 66 66 67 67 68 68 68 68 69 69 69 69 70 70 70 71 70 69 69 69 69 69 69 70 71 72 72 71 71 70 69 69 68 67 67 68 69 69
22 26 38 30 28 27 28 33 38 41 42 43 45 48 45 46 46 47 47 48 48 48 50 49 49 50 56 57 57 58 58 60 61 60 61 61 61 62 62 62 62 63 63 63 64 64 65 65 66 66 66 67 67 68 68 68 68 69 69 70 70 69 70 70 69 69 68 68 69 69 70 70 70 71 71 71 72 71 70 70 70 68 67 67 68 69
26 25 35 32 25 25 27 34 38 41 41 42 43 43 42 43 45 45 46 49 47 45 47 47 46 47 53 57 56 57 58 58 59 60 60 61 61 61 61 62 62 63 63 63 64 64 65 65 65 65 66 66 67 68 68 68 68 69 69 69 69 70 70 70 69 69 69 69 69 69 69 70 70 70 70 70 70 69 69 69 70 71 68 67 67 69
28 28 26 28 24 27 28 33 36 35 34 37 41 44 44 45 47 48 49 51 51 49 47 44 45 51 56 57 55 56 57 57 57 58 59 61 61 61 61 62 62 63 63 63 64 64 64 65 65 65 66 66 67 67 68 68 68 68 68 68 68 69 69 69 69 69 69 69 69 69 69 69 69 69 69 69 68 67 68 67 67 67 70 71 71 70
37 31 25 32 22 26 28 34 37 33 31 35 45 47 46 46 48 48 47 50 54 52 48 49 53 57 56 55 55 55 56 56 56 58 59 60 61 61 61 61 61 61 62 62 63 64 65 65 65 66 66 66 67 67 68 68 68 68 69 69 69 69 68 68 68 68 69 69 69 69 69 69 69 69 69 69 69 68 67 67 67 68 70 70 70 70
39 29 24 32 23 23 31 35 33 30 32 41 49 51 49 50 50 49 49 50 52 55 54 54 55 55 56 56 56 56 55 55 55 56 56 57 58 58 58 58 59 60 60 60 61 62 64 65 65 65 65 65 66 66 66 66 68 68 68 68 68 68 68 68 68 68 68 68 69 69 69 69 69 69 69 69 69 69 69 68 68 69 70 69 68 68
28 23 26 24 29 29 30 30 26 29 39 46 48 48 49 50 47 47 46 48 50 52 54 54 54 56 56 56 56 56 56 55 53 54 55 56 55 55 55 55 57 58 58 59 60 60 62 63 64 64 64 65 65 65 65 66 66 66 66 67 67 68 67 67 68 68 68 68 68 69 69 69 69 69 70 69 70 69 69 68 67 68 69 69 68 69
30 32 27 20 31 24 27 31 31 37 37 40 45 46 45 44 45 45 44 47 50 51 53 54 56 56 57 56 55 56 55 55 52 52 53 55 54 53 54 54 55 56 57 58 59 59 59 60 61 62 63 63 63 63 64 64 65 65 65 65 65 65 65 66 67 67 68 68 68 68 69 69 69 69 68 69 69 69 69 69 68 68 70 69 69 69
32 22 26 24 25 33 30 28 30 29 29 33 42 49 50 47 47 49 48 46 49 50 53 53 54 56 56 54 55 55 54 50 47 51 53 53 53 51 51 52 52 53 54 56 57 57 59 59 59 60 60 61 62 63 63 64 63 63 63 63 64 64 64 64 64 65 67 67 68 68 68 68 68 68 68 68 68 68 68 68 69 70 71 70 69 69
31 30 28 21 20 24 28 27 25 26 29 38 41 45 46 50 47 49 44 42 47 50 53 54 53 53 53 53 53 54 50 47 46 50 53 54 52 52 50 50 51 52 52 53 54 55 57 58 59 59 59 59 60 61 62 62 62 61 61 61 62 62 62 63 63 64 65 66 67 68 68 68 68 68 68 68 67 68 68 68 69 69 70 70 70 70
36 37 28 28 33 34 28 27 29 32 33 38 43 44 44 45 45 40 32 36 44 48 53 55 54 53 53 52 53 52 50 46 46 50 54 55 53 50 50 51 51 51 51 52 53 54 56 57 56 56 57 57 58 60 60 60 60 60 59 60 61 60 61 62 62 63 64 64 66 67 67 68 68 68 68 68 68 67 68 69 69 69 69 69 70 70
31 31 34 28 32 39 40 34 34 36 41 45 46 45 44 47 38 32 30 39 48 51 54 56 56 56 54 54 54 52 52 52 51 52 55 56 52 50 50 51 51 52 52 52 54 56 53 53 54 54 55 56 57 57 58 59 58 59 59 59 59 59 61 62 62 62 62 62 62 65 66 66 67 67 68 68 67 67 66 66 68 69 69 69 68 68
29 35 34 33 31 33 32 33 33 35 39 42 45 45 47 38 30 30 38 47 49 53 55 55 55 56 56 56 55 53 53 55 55 54 53 53 52 52 52 52 52 52 52 57 57 55 52 53 54 55 55 55 56 56 56 57 58 58 58 58 58 60 61 60 60 60 61 61 62 62 63 65 65 65 64 64 63 62 62 62 62 66 69 69 68 68
29 28 26 28 31 33 32 31 28 25 36 44 45 41 44 37 37 41 48 53 55 55 55 55 54 55 56 54 54 53 53 53 53 52 52 52 51 52 52 53 53 53 53 53 54 56 54 54 54 55 55 55 55 55 56 57 57 57 56 56 58 58 60 59 58 59 60 60 60 61 61 61 61 62 61 61 61 60 59 59 60 60 63 67 68 67
34 29 29 30 35 30 29 28 28 33 38 45 42 36 40 45 46 49 52 51 53 54 54 53 53 53 54 53 53 52 51 52 51 51 51 51 51 51 51 51 51 52 53 54 55 56 57 54 55 55 55 55 55 55 55 56 57 57 56 55 58 59 60 59 58 58 59 60 58 59 59 59 59 59 58 59 59 59 59 59 59 59 59 62 67 66
40 32 33 28 33 34 33 35 39 43 45 46 46 46 47 49 51 52 52 51 51 52 54 54 54 54 54 53 52 51 51 51 51 51 50 50 49 50 50 50 51 51 51 52 54 56 55 54 54 54 54 55 55 55 54 54 54 56 55 55 58 59 59 60 60 59 58 58 57 56 55 56 56 56 56 56 57 57 58 58 59 59 59 61 62 65
38 39 41 39 37 41 42 42 45 45 46 47 48 49 50 50 52 53 52 51 51 52 54 55 55 55 55 54 53 52 51 51 50 50 50 49 48 50 51 49 49 49 51 53 53 54 54 54 54 54 54 54 54 55 56 54 54 55 54 56 56 58 60 58 58 59 58 59 59 56 55 53 53 53 54 55 55 57 56 57 58 59 60 60 63 64
41 43 40 37 39 35 35 41 43 45 46 47 48 49 50 51 50 52 52 52 52 54 55 55 56 56 56 55 53 52 51 51 50 50 50 49 48 48 48 48 48 48 50 52 54 54 53 53 53 53 53 53 53 53 54 54 54 55 55 55 55 57 59 58 57 57 57 57 59 59 57 54 54 53 54 54 54 53 54 55 56 57 59 58 60 63
33 42 39 41 39 34 36 40 44 46 46 47 48 48 48 50 51 52 52 53 54 55 56 56 56 55 55 55 54 53 52 51 50 49 49 49 48 48 47 47 47 48 50 52 53 53 51 51 51 52 52 52 51 51 53 53 53 54 54 54 55 56 59 59 58 55 55 56 58 60 57 57 57 54 52 53 54 53 53 54 56 56 56 55 56 59
36 43 35 42 41 42 43 44 45 45 45 45 46 47 49 50 52 52 53 53 55 55 56 56 56 56 56 55 54 53 52 51 50 50 49 48 48 48 47 47 47 49 50 52 53 53 50 52 52 52 53 51 50 50 51 51 52 53 53 54 54 55 59 59 59 58 56 57 57 58 59 57 54 52 51 51 52 52 52 52 53 55 55 54 53 55
38 35 40 42 40 38 40 42 43 40 40 43 45 47 48 49 52 52 52 53 54 54 54 55 55 56 56 55 55 55 53 53 51 50 49 49 49 48 47 47 48 50 51 51 54 52 52 54 52 52 52 50 49 50 52 50 50 51 53 53 54 54 57 58 58 56 56 58 58 58 58 59 57 55 53 51 51 51 52 52 47 47 53 53 52 49
36 38 41 39 39 38 41 44 44 42 43 44 45 47 49 50 51 51 51 52 52 53 54 54 54 54 55 55 55 55 54 54 52 50 49 49 49 49 48 47 48 50 50 52 52 51 52 52 54 52 51 50 51 51 52 52 50 49 51 52 53 53 53 55 56 56 55 58 58 59 58 58 57 57 56 54 53 52 53 50 51 44 44 48 50 46